Find Kuiper-00205

NORAD ID: 67774 Int'l Des: 2026-030 Owner: KUIP Country: US Constellation: amazon-leo operational
LEOCIRCULAR

Current View

Loading 3D Globe...

About Kuiper-00205

Description loading...

Upcoming Passes

Passes for default location (London). Set your location on the main map for personalized predictions.

Altitude History

Loading altitude history...

Two-Line Element Set

1 67774U 26030L 26146.58335648 .00064845 00000-0 23250-2 0 9994
2 67774 51.8836 202.6226 0003287 314.2555 105.9048 15.28105679 5656
Epoch: May 26, 2026 • Age: 9 hours

Current Status

Altitude 492.9 km
Velocity 7.62 km/s
Sub-Earth Point -36.82°S, 166.64°W
Launch Date Feb 12, 2026
Age 0.2 years
Type internet

Technical Details

Classification Payload
Mass 490.00 kg
Dry Mass 490.00 kg
Total Mass 490.00 kg
Length 1.80 m
Diameter 0.70 m
Span 5.00 m
Shape Box + 2 pan
Manufacturer KUIP
Bus Type Kuiper
Phase Status In Orbit
Owner/State KUIP/US

Most Searched